| time (UTC) | temp C | wind direction | speed KPH | gust KPH | rain 1hr cm | rain 24hr cm | rain mn cm | humidity % | barometer mb |
| 20260504100109 | 3 | 232 | 0.0 | 0.0 | 0.00 | 0.00 | 0.00 | 84 | 1013.7 |
| 20260504081827 | 6 | 231 | 0.0 | 0.0 | 0.00 | 0.00 | 0.00 | 75 | 1013.9 |
| 20260504081054 | 6 | 227 | 0.0 | 0.0 | 0.00 | 0.00 | 0.00 | 75 | 1014.0 |
| 20260504080556 | 6 | 227 | 0.0 | 0.0 | 0.00 | 0.00 | 0.00 | 75 | 1013.9 |
| 20260504050019 | 7 | 222 | 0.0 | 0.0 | 0.00 | 0.00 | 0.00 | 68 | 1014.0 |
| 20260504045516 | 7 | 208 | 0.0 | 0.0 | 0.00 | 0.00 | 0.00 | 67 | 1014.0 |
| 20260504045015 | 7 | 222 | 0.0 | 0.0 | 0.00 | 0.00 | 0.00 | 66 | 1014.0 |
| 20260504044513 | 7 | 224 | 0.0 | 0.0 | 0.00 | 0.00 | 0.00 | 67 | 1014.1 |
| 20260504044013 | 8 | 211 | 0.0 | 0.0 | 0.00 | 0.00 | 0.00 | 66 | 1014.1 |
| 20260504043739 | 8 | 226 | 0.0 | 0.0 | 0.00 | 0.00 | 0.00 | 65 | 1014.0 |
| 20260504043240 | 8 | 231 | 0.0 | 0.0 | 0.00 | 0.00 | 0.00 | 65 | 1014.0 |
| 20260504042508 | 8 | 215 | 0.0 | 0.0 | 0.00 | 0.00 | 0.00 | 65 | 1014.0 |
| 20260504042009 | 8 | 198 | 0.0 | 8.0 | 0.00 | 0.00 | 0.00 | 66 | 1014.0 |
| 20260504041507 | 8 | 198 | 0.0 | 8.0 | 0.00 | 0.00 | 0.00 | 64 | 1014.0 |
| 20260504041008 | 8 | 243 | 0.0 | 11.3 | 0.00 | 0.00 | 0.00 | 64 | 1014.1 |
| 20260504040502 | 8 | 230 | 1.6 | 11.3 | 0.00 | 0.00 | 0.00 | 64 | 1014.0 |
| 20260504040002 | 8 | 234 | 1.6 | 11.3 | 0.00 | 0.00 | 0.00 | 63 | 1014.0 |
| 20260504035734 | 8 | 242 | 1.6 | 11.3 | 0.00 | 0.00 | 0.00 | 63 | 1014.0 |
| 20260504035003 | 8 | 236 | 0.0 | 11.3 | 0.00 | 0.00 | 0.00 | 63 | 1013.8 |
| 20260504034503 | 8 | 220 | 1.6 | 11.3 | 0.00 | 0.00 | 0.00 | 62 | 1013.7 |
| 20260504034003 | 8 | 247 | 3.2 | 11.3 | 0.00 | 0.00 | 0.00 | 62 | 1013.7 |
| 20260504033502 | 8 | 242 | 4.8 | 12.9 | 0.00 | 0.00 | 0.00 | 62 | 1013.6 |
| 20260504033000 | 9 | 231 | 1.6 | 12.9 | 0.00 | 0.00 | 0.00 | 62 | 1013.7 |
| 20260504032728 | 9 | 242 | 0.0 | 0.0 | 0.00 | 0.00 | 0.00 | 62 | 1013.5 |
| 20260504031959 | 9 | 217 | 0.0 | 0.0 | 0.00 | 0.00 | 0.00 | 62 | 1013.7 |
| 20260504031730 | 9 | 226 | 0.0 | 0.0 | 0.00 | 0.00 | 0.00 | 63 | 1013.6 |
| 20260504031228 | 9 | 230 | 0.0 | 0.0 | 0.00 | 0.00 | 0.00 | 62 | 1013.5 |
| 20260504030456 | 9 | 254 | 0.0 | 0.0 | 0.00 | 0.00 | 0.00 | 62 | 1013.4 |
| 20260504025949 | 9 | 241 | 0.0 | 0.0 | 0.00 | 0.00 | 0.00 | 61 | 1013.5 |
| 20260504025450 | 9 | 246 | 0.0 | 0.0 | 0.00 | 0.00 | 0.00 | 61 | 1013.4 |
| 20260504025222 | 9 | 255 | 0.0 | 0.0 | 0.00 | 0.00 | 0.00 | 61 | 1013.4 |
| 20260504024451 | 9 | 244 | 0.0 | 0.0 | 0.00 | 0.00 | 0.00 | 61 | 1013.5 |
| 20260504023951 | 9 | 230 | 0.0 | 0.0 | 0.00 | 0.00 | 0.00 | 60 | 1013.5 |
| 20260504023452 | 9 | 230 | 0.0 | 0.0 | 0.00 | 0.00 | 0.00 | 60 | 1013.4 |
| 20260504022946 | 9 | 234 | 0.0 | 0.0 | 0.00 | 0.00 | 0.00 | 61 | 1013.5 |
| 20260504022447 | 9 | 202 | 0.0 | 0.0 | 0.00 | 0.00 | 0.00 | 62 | 1013.6 |
| 20260504022216 | 9 | 239 | 0.0 | 12.9 | 0.00 | 0.00 | 0.00 | 60 | 1013.6 |
| 20260504022101 | 10 | 239 | 0.0 | 12.9 | 0.00 | 0.00 | 0.00 | 61 | 1013.5 |
| 20260504020945 | 10 | 257 | 0.0 | 12.9 | 0.00 | 0.00 | 0.00 | 59 | 1013.5 |
| 20260504020445 | 10 | 259 | 1.6 | 12.9 | 0.00 | 0.00 | 0.00 | 59 | 1013.6 |
| 20260504015940 | 10 | 248 | 1.6 | 12.9 | 0.00 | 0.00 | 0.00 | 58 | 1013.5 |
| 20260504015441 | 10 | 265 | 0.0 | 0.0 | 0.00 | 0.00 | 0.00 | 58 | 1013.6 |
| 20260504014941 | 10 | 250 | 0.0 | 0.0 | 0.00 | 0.00 | 0.00 | 57 | 1013.5 |
| 20260504014441 | 10 | 238 | 0.0 | 0.0 | 0.00 | 0.00 | 0.00 | 58 | 1013.5 |
| 20260504013939 | 10 | 217 | 0.0 | 0.0 | 0.00 | 0.00 | 0.00 | 58 | 1013.5 |
| 20260504013439 | 10 | 248 | 0.0 | 0.0 | 0.00 | 0.00 | 0.00 | 58 | 1013.4 |
| 20260504012934 | 10 | 229 | 0.0 | 0.0 | 0.00 | 0.00 | 0.00 | 57 | 1013.5 |
| 20260504012706 | 10 | 238 | 0.0 | 0.0 | 0.00 | 0.00 | 0.00 | 56 | 1013.4 |
| 20260504011931 | 10 | 253 | 0.0 | 0.0 | 0.00 | 0.00 | 0.00 | 56 | 1013.3 |
| 20260504011433 | 11 | 255 | 0.0 | 0.0 | 0.00 | 0.00 | 0.00 | 54 | 1013.3 |
| 20260504010933 | 11 | 241 | 0.0 | 0.0 | 0.00 | 0.00 | 0.00 | 54 | 1013.3 |
| 20260504010434 | 11 | 242 | 0.0 | 0.0 | 0.00 | 0.00 | 0.00 | 53 | 1013.3 |
| 20260504005930 | 11 | 259 | 0.0 | 0.0 | 0.00 | 0.00 | 0.00 | 53 | 1013.3 |
| 20260504005428 | 11 | 260 | 0.0 | 0.0 | 0.00 | 0.00 | 0.00 | 54 | 1013.3 |
| 20260504004929 | 11 | 249 | 0.0 | 0.0 | 0.00 | 0.00 | 0.00 | 54 | 1013.3 |
| 20260504004701 | 11 | 248 | 0.0 | 0.0 | 0.00 | 0.00 | 0.00 | 53 | 1013.2 |
| 20260504004158 | 11 | 259 | 0.0 | 12.9 | 0.00 | 0.00 | 0.00 | 53 | 1013.1 |
| 20260504003657 | 11 | 273 | 0.0 | 12.9 | 0.00 | 0.00 | 0.00 | 53 | 1013.2 |
| 20260504003151 | 11 | 258 | 1.6 | 12.9 | 0.00 | 0.00 | 0.00 | 53 | 1013.1 |
| 20260504002421 | 11 | 261 | 1.6 | 12.9 | 0.00 | 0.00 | 0.00 | 53 | 1013.1 |
| 20260504001926 | 12 | 227 | 1.6 | 16.1 | 0.00 | 0.00 | 0.00 | 52 | 1013.0 |
| 20260504001921 | 11 | 267 | 0.0 | 0.0 | 0.00 | 0.00 | 0.00 | 52 | 1013.0 |
| 20260504000920 | 12 | 257 | 3.2 | 16.1 | 0.00 | 0.00 | 0.00 | 51 | 1012.9 |
| 20260504000421 | 12 | 263 | 1.6 | 12.9 | 0.00 | 0.00 | 0.00 | 51 | 1012.8 |
| 20260504000145 | 12 | 255 | 3.2 | 22.5 | 0.00 | 0.00 | 0.00 | 50 | 1012.8 |
| 20260503235414 | 12 | 273 | 6.4 | 22.5 | 0.00 | 0.00 | 0.00 | 49 | 1012.7 |
| 20260503235145 | 13 | 252 | 9.7 | 24.1 | 0.00 | 0.00 | 0.00 | 48 | 1012.6 |
| 20260503234415 | 13 | 277 | 6.4 | 24.1 | 0.00 | 0.00 | 0.00 | 47 | 1012.6 |
| 20260503233915 | 13 | 248 | 3.2 | 19.3 | 0.00 | 0.00 | 0.00 | 46 | 1012.6 |
| 20260503233416 | 13 | 254 | 6.4 | 27.4 | 0.00 | 0.00 | 0.00 | 46 | 1012.6 |
| 20260503232910 | 14 | 300 | 9.7 | 27.4 | 0.00 | 0.00 | 0.00 | 45 | 1012.5 |
| 20260503232411 | 14 | 260 | 9.7 | 27.4 | 0.00 | 0.00 | 0.00 | 44 | 1012.5 |
| 20260503231907 | 14 | 288 | 9.7 | 27.4 | 0.00 | 0.00 | 0.00 | 45 | 1012.5 |
| 20260503231409 | 14 | 239 | 12.9 | 27.4 | 0.00 | 0.00 | 0.00 | 44 | 1012.6 |
| 20260503230908 | 15 | 254 | 12.9 | 27.4 | 0.00 | 0.00 | 0.00 | 43 | 1012.4 |
| 20260503230409 | 15 | 295 | 12.9 | 27.4 | 0.00 | 0.00 | 0.00 | 42 | 1012.5 |
| 20260503225901 | 15 | 216 | 12.9 | 27.4 | 0.00 | 0.00 | 0.00 | 43 | 1012.3 |
| 20260503225401 | 15 | 267 | 14.5 | 27.4 | 0.00 | 0.00 | 0.00 | 40 | 1012.5 |
| 20260503224904 | 15 | 293 | 11.3 | 30.6 | 0.00 | 0.00 | 0.00 | 42 | 1012.4 |
| 20260503224400 | 15 | 277 | 8.0 | 30.6 | 0.00 | 0.00 | 0.00 | 40 | 1012.5 |
| 20260503223859 | 15 | 263 | 11.3 | 30.6 | 0.00 | 0.00 | 0.00 | 42 | 1012.4 |
| 20260503223358 | 15 | 263 | 14.5 | 30.6 | 0.00 | 0.00 | 0.00 | 41 | 1012.4 |
| 20260503222858 | 15 | 291 | 16.1 | 30.6 | 0.00 | 0.00 | 0.00 | 43 | 1012.3 |
| 20260503222359 | 15 | 268 | 17.7 | 30.6 | 0.00 | 0.00 | 0.00 | 40 | 1012.5 |
| 20260503221854 | 15 | 267 | 17.7 | 30.6 | 0.00 | 0.00 | 0.00 | 40 | 1012.4 |
| 20260503221354 | 16 | 286 | 17.7 | 30.6 | 0.00 | 0.00 | 0.00 | 42 | 1012.5 |
| 20260503220853 | 16 | 267 | 17.7 | 29.0 | 0.00 | 0.00 | 0.00 | 45 | 1012.5 |
| 20260503220353 | 15 | 280 | 16.1 | 29.0 | 0.00 | 0.00 | 0.00 | 40 | 1012.5 |
| 20260503215854 | 15 | 277 | 12.9 | 27.4 | 0.00 | 0.00 | 0.00 | 41 | 1012.5 |
| 20260503215355 | 15 | 245 | 12.9 | 27.4 | 0.00 | 0.00 | 0.00 | 42 | 1012.5 |
| 20260503214849 | 15 | 298 | 17.7 | 32.2 | 0.00 | 0.00 | 0.00 | 45 | 1012.5 |
| 20260503214349 | 16 | 248 | 16.1 | 32.2 | 0.00 | 0.00 | 0.00 | 42 | 1012.5 |
| 20260503213849 | 16 | 257 | 14.5 | 32.2 | 0.00 | 0.00 | 0.00 | 44 | 1012.4 |
| 20260503213350 | 16 | 268 | 16.1 | 32.2 | 0.00 | 0.00 | 0.00 | 44 | 1012.3 |
| 20260503212851 | 16 | 219 | 17.7 | 35.4 | 0.00 | 0.00 | 0.00 | 43 | 1012.3 |
| 20260503212617 | 16 | 263 | 16.1 | 35.4 | 0.00 | 0.00 | 0.00 | 43 | 1012.3 |
| 20260503211847 | 16 | 277 | 14.5 | 33.8 | 0.00 | 0.00 | 0.00 | 44 | 1012.3 |
| 20260503211345 | 16 | 238 | 14.5 | 37.0 | 0.00 | 0.00 | 0.00 | 44 | 1012.2 |
| 20260503210845 | 16 | 321 | 17.7 | 37.0 | 0.00 | 0.00 | 0.00 | 44 | 1012.4 |
| 20260503210346 | 16 | 282 | 17.7 | 35.4 | 0.00 | 0.00 | 0.00 | 45 | 1012.3 |
| 20260503205846 | 16 | 240 | 14.5 | 35.4 | 0.00 | 0.00 | 0.00 | 46 | 1012.3 |
| 20260503205341 | 16 | 294 | 16.1 | 38.6 | 0.00 | 0.00 | 0.00 | 40 | 1012.3 |
| 20260503204842 | 16 | 275 | 14.5 | 38.6 | 0.00 | 0.00 | 0.00 | 43 | 1012.3 |
| 20260503204341 | 16 | 242 | 12.9 | 29.0 | 0.00 | 0.00 | 0.00 | 46 | 1012.3 |
| 20260503204113 | 15 | 281 | 12.9 | 27.4 | 0.00 | 0.00 | 0.00 | 43 | 1012.3 |
| 20260503203341 | 16 | 296 | 14.5 | 25.7 | 0.00 | 0.00 | 0.00 | 45 | 1012.4 |
| 20260503202843 | 16 | 301 | 14.5 | 25.7 | 0.00 | 0.00 | 0.00 | 41 | 1012.3 |
| 20260503202337 | 16 | 237 | 16.1 | 30.6 | 0.00 | 0.00 | 0.00 | 45 | 1012.4 |
| 20260503201837 | 15 | 255 | 17.7 | 30.6 | 0.00 | 0.00 | 0.00 | 44 | 1012.4 |
| 20260503201335 | 15 | 268 | 16.1 | 30.6 | 0.00 | 0.00 | 0.00 | 44 | 1012.4 |
| 20260503201107 | 15 | 298 | 16.1 | 33.8 | 0.00 | 0.00 | 0.00 | 46 | 1012.5 |
| 20260503200336 | 15 | 239 | 17.7 | 33.8 | 0.00 | 0.00 | 0.00 | 44 | 1012.4 |
| 20260503195836 | 15 | 281 | 19.3 | 33.8 | 0.00 | 0.00 | 0.00 | 41 | 1012.5 |
| 20260503195337 | 15 | 214 | 20.9 | 35.4 | 0.00 | 0.00 | 0.00 | 45 | 1012.5 |
| 20260503194836 | 15 | 265 | 17.7 | 35.4 | 0.00 | 0.00 | 0.00 | 48 | 1012.5 |
| 20260503194602 | 15 | 232 | 17.7 | 48.3 | 0.00 | 0.00 | 0.00 | 47 | 1012.7 |
| 20260503194101 | 15 | 290 | 17.7 | 48.3 | 0.00 | 0.00 | 0.00 | 44 | 1012.8 |
| 20260503193331 | 15 | 296 | 17.7 | 33.8 | 0.00 | 0.00 | 0.00 | 42 | 1012.8 |
| 20260503192830 | 14 | 289 | 19.3 | 35.4 | 0.00 | 0.00 | 0.00 | 46 | 1013.0 |
| 20260503192330 | 14 | 311 | 12.9 | 35.4 | 0.00 | 0.00 | 0.00 | 46 | 1012.9 |
| 20260503191830 | 14 | 282 | 11.3 | 27.4 | 0.00 | 0.00 | 0.00 | 48 | 1013.0 |
| 20260503191324 | 14 | 336 | 16.1 | 27.4 | 0.00 | 0.00 | 0.00 | 43 | 1013.1 |
| 20260503190825 | 14 | 315 | 16.1 | 27.4 | 0.00 | 0.00 | 0.00 | 44 | 1013.2 |
| 20260503190325 | 14 | 210 | 9.7 | 29.0 | 0.00 | 0.00 | 0.00 | 48 | 1013.2 |
| 20260503190056 | 13 | 260 | 11.3 | 29.0 | 0.00 | 0.00 | 0.00 | 46 | 1013.3 |
| 20260503185325 | 13 | 283 | 12.9 | 29.0 | 0.00 | 0.00 | 0.00 | 44 | 1013.5 |
| 20260503184825 | 13 | 259 | 8.0 | 29.0 | 0.00 | 0.00 | 0.00 | 47 | 1013.4 |
| 20260503184318 | 13 | 269 | 11.3 | 27.4 | 0.00 | 0.00 | 0.00 | 42 | 1013.4 |
| 20260503183818 | 13 | 319 | 11.3 | 32.2 | 0.00 | 0.00 | 0.00 | 43 | 1013.6 |
| 20260503183318 | 13 | 270 | 14.5 | 32.2 | 0.00 | 0.00 | 0.00 | 44 | 1013.6 |
| 20260503182818 | 13 | 239 | 16.1 | 37.0 | 0.00 | 0.00 | 0.00 | 45 | 1013.7 |
| 20260503182319 | 13 | 292 | 17.7 | 37.0 | 0.00 | 0.00 | 0.00 | 46 | 1013.6 |
| 20260503182048 | 13 | 277 | 20.9 | 38.6 | 0.00 | 0.00 | 0.00 | 42 | 1013.8 |
| 20260503181311 | 13 | 281 | 22.5 | 38.6 | 0.00 | 0.00 | 0.00 | 42 | 1013.7 |
| 20260503180812 | 13 | 275 | 19.3 | 35.4 | 0.00 | 0.00 | 0.00 | 45 | 1013.8 |
| 20260503180313 | 13 | 246 | 17.7 | 33.8 | 0.00 | 0.00 | 0.00 | 48 | 1013.8 |
| 20260503175812 | 13 | 312 | 17.7 | 32.2 | 0.00 | 0.00 | 0.00 | 48 | 1013.7 |
| 20260503175312 | 13 | 315 | 17.7 | 32.2 | 0.00 | 0.00 | 0.00 | 45 | 1013.8 |
| 20260503174811 | 13 | 293 | 19.3 | 43.5 | 0.00 | 0.00 | 0.00 | 43 | 1014.0 |
| 20260503174306 | 13 | 269 | 16.1 | 43.5 | 0.00 | 0.00 | 0.00 | 56 | 1013.8 |
| 20260503173806 | 13 | 250 | 16.1 | 33.8 | 0.00 | 0.00 | 0.00 | 51 | 1014.0 |
| 20260503173305 | 12 | 244 | 14.5 | 29.0 | 0.00 | 0.00 | 0.00 | 50 | 1013.8 |
| 20260503172806 | 13 | 310 | 14.5 | 30.6 | 0.00 | 0.00 | 0.00 | 44 | 1014.0 |
| 20260503172538 | 13 | 292 | 14.5 | 30.6 | 0.00 | 0.00 | 0.00 | 49 | 1014.0 |
| 20260503171807 | 12 | 279 | 17.7 | 32.2 | 0.00 | 0.00 | 0.00 | 51 | 1014.0 |
| 20260503171300 | 12 | 265 | 19.3 | 32.2 | 0.00 | 0.00 | 0.00 | 49 | 1014.2 |
| 20260503170800 | 12 | 312 | 19.3 | 32.2 | 0.00 | 0.00 | 0.00 | 47 | 1014.2 |
| 20260503170300 | 13 | 296 | 19.3 | 32.2 | 0.00 | 0.00 | 0.00 | 51 | 1014.2 |
| 20260503150735 | 10 | 317 | 16.1 | 35.4 | 0.00 | 0.00 | 0.00 | 49 | 1015.0 |
| 20260503150236 | 10 | 325 | 16.1 | 35.4 | 0.00 | 0.00 | 0.00 | 49 | 1015.1 |
| 20260503140222 | 8 | 307 | 16.1 | 29.0 | 0.00 | 0.00 | 0.00 | 56 | 1015.2 |
| 20260503131210 | 7 | 274 | 11.3 | 30.6 | 0.00 | 0.00 | 0.00 | 62 | 1015.6 |
| 20260503130712 | 7 | 284 | 11.3 | 22.5 | 0.00 | 0.00 | 0.00 | 63 | 1015.6 |
| 20260503130211 | 7 | 297 | 16.1 | 32.2 | 0.00 | 0.00 | 0.00 | 65 | 1015.6 |
| 20260503120157 | 6 | 278 | 14.5 | 27.4 | 0.00 | 0.00 | 0.00 | 67 | 1015.4 |
| 20260503110646 | 5 | 304 | 9.7 | 22.5 | 0.00 | 0.00 | 0.00 | 70 | 1014.7 |
| 20260503110146 | 5 | 281 | 9.7 | 22.5 | 0.00 | 0.00 | 0.00 | 70 | 1014.7 |